﻿測定場所 (Monitoring sites),日付 (Measurement date),時間 (Measurement time),線量率 最大値 (max) μGy/h,線量率 最小値 (min) μGy/h,線量率 平均値 (average) μGy/h,
大田 (Ota),2020-07-19,23:01～24:00,0.0337,0.0297,0.0324,
大田 (Ota),2020-07-19,22:01～23:00,0.0348,0.0305,0.0325,
大田 (Ota),2020-07-19,21:01～22:00,0.0346,0.0308,0.0326,
大田 (Ota),2020-07-19,20:01～21:00,0.0356,0.0301,0.0326,
大田 (Ota),2020-07-19,19:01～20:00,0.0358,0.0301,0.0325,
大田 (Ota),2020-07-19,18:01～19:00,0.0347,0.0306,0.0326,
大田 (Ota),2020-07-19,17:01～18:00,0.0350,0.0310,0.0329,
大田 (Ota),2020-07-19,16:01～17:00,0.0343,0.0301,0.0326,
大田 (Ota),2020-07-19,15:01～16:00,0.0350,0.0303,0.0325,
大田 (Ota),2020-07-19,14:01～15:00,0.0348,0.0300,0.0325,
大田 (Ota),2020-07-19,13:01～14:00,0.0340,0.0300,0.0324,
大田 (Ota),2020-07-19,12:01～13:00,0.0359,0.0304,0.0323,
大田 (Ota),2020-07-19,11:01～12:00,0.0350,0.0303,0.0325,
大田 (Ota),2020-07-19,10:01～11:00,0.0339,0.0302,0.0324,
大田 (Ota),2020-07-19,09:01～10:00,0.0352,0.0304,0.0326,
大田 (Ota),2020-07-19,08:01～09:00,0.0352,0.0307,0.0326,
大田 (Ota),2020-07-19,07:01～08:00,0.0351,0.0309,0.0327,
大田 (Ota),2020-07-19,06:01～07:00,0.0349,0.0315,0.0330,
大田 (Ota),2020-07-19,05:01～06:00,0.0352,0.0301,0.0324,
大田 (Ota),2020-07-19,04:01～05:00,0.0342,0.0296,0.0323,
大田 (Ota),2020-07-19,03:01～04:00,0.0339,0.0300,0.0320,
大田 (Ota),2020-07-19,02:01～03:00,0.0347,0.0303,0.0323,
大田 (Ota),2020-07-19,01:01～02:00,0.0342,0.0305,0.0323,
大田 (Ota),2020-07-19,00:01～01:00,0.0346,0.0298,0.0323,
大田 (Ota),2020-07-18,23:01～24:00,0.0337,0.0300,0.0321,
大田 (Ota),2020-07-18,22:01～23:00,0.0340,0.0301,0.0321,
大田 (Ota),2020-07-18,21:01～22:00,0.0342,0.0306,0.0322,
大田 (Ota),2020-07-18,20:01～21:00,0.0353,0.0309,0.0326,
大田 (Ota),2020-07-18,19:01～20:00,0.0363,0.0304,0.0331,
大田 (Ota),2020-07-18,18:01～19:00,0.0368,0.0312,0.0343,
大田 (Ota),2020-07-18,17:01～18:00,0.0346,0.0301,0.0323,
大田 (Ota),2020-07-18,16:01～17:00,0.0349,0.0298,0.0322,
大田 (Ota),2020-07-18,15:01～16:00,0.0340,0.0304,0.0322,
大田 (Ota),2020-07-18,14:01～15:00,0.0346,0.0305,0.0325,
大田 (Ota),2020-07-18,13:01～14:00,0.0388,0.0314,0.0351,
大田 (Ota),2020-07-18,12:01～13:00,0.0513,0.0362,0.0432,
大田 (Ota),2020-07-18,11:01～12:00,0.0604,0.0468,0.0557,
大田 (Ota),2020-07-18,10:01～11:00,0.0598,0.0504,0.0548,
大田 (Ota),2020-07-18,09:01～10:00,0.0515,0.0418,0.0470,
大田 (Ota),2020-07-18,08:01～09:00,0.0511,0.0406,0.0459,
大田 (Ota),2020-07-18,07:01～08:00,0.0507,0.0430,0.0465,
大田 (Ota),2020-07-18,06:01～07:00,0.0487,0.0402,0.0442,
大田 (Ota),2020-07-18,05:01～06:00,0.0422,0.0322,0.0368,
大田 (Ota),2020-07-18,04:01～05:00,0.0377,0.0319,0.0350,
大田 (Ota),2020-07-18,03:01～04:00,0.0446,0.0356,0.0393,
大田 (Ota),2020-07-18,02:01～03:00,0.0447,0.0334,0.0395,
大田 (Ota),2020-07-18,01:01～02:00,0.0354,0.0313,0.0334,
大田 (Ota),2020-07-18,00:01～01:00,0.0399,0.0337,0.0362,
大田 (Ota),2020-07-17,23:01～24:00,0.0427,0.0347,0.0389,
大田 (Ota),2020-07-17,22:01～23:00,0.0507,0.0387,0.0440,
大田 (Ota),2020-07-17,21:01～22:00,0.0493,0.0397,0.0457,
大田 (Ota),2020-07-17,20:01～21:00,0.0460,0.0364,0.0411,
大田 (Ota),2020-07-17,19:01～20:00,0.0403,0.0309,0.0350,
大田 (Ota),2020-07-17,18:01～19:00,0.0340,0.0305,0.0323,
大田 (Ota),2020-07-17,17:01～18:00,0.0347,0.0306,0.0322,
大田 (Ota),2020-07-17,16:01～17:00,0.0343,0.0302,0.0323,
大田 (Ota),2020-07-17,15:01～16:00,0.0365,0.0309,0.0338,
大田 (Ota),2020-07-17,14:01～15:00,0.0423,0.0342,0.0375,
大田 (Ota),2020-07-17,13:01～14:00,0.0423,0.0334,0.0367,
大田 (Ota),2020-07-17,12:01～13:00,0.0368,0.0315,0.0339,
大田 (Ota),2020-07-17,11:01～12:00,0.0403,0.0328,0.0357,
大田 (Ota),2020-07-17,10:01～11:00,0.0432,0.0354,0.0400,
大田 (Ota),2020-07-17,09:01～10:00,0.0448,0.0368,0.0414,
大田 (Ota),2020-07-17,08:01～09:00,0.0436,0.0362,0.0389,
大田 (Ota),2020-07-17,07:01～08:00,0.0422,0.0360,0.0391,
大田 (Ota),2020-07-17,06:01～07:00,0.0431,0.0371,0.0404,
大田 (Ota),2020-07-17,05:01～06:00,0.0442,0.0378,0.0411,
大田 (Ota),2020-07-17,04:01～05:00,0.0454,0.0365,0.0407,
大田 (Ota),2020-07-17,03:01～04:00,0.0457,0.0387,0.0421,
大田 (Ota),2020-07-17,02:01～03:00,0.0428,0.0353,0.0387,
大田 (Ota),2020-07-17,01:01～02:00,0.0378,0.0298,0.0335,
大田 (Ota),2020-07-17,00:01～01:00,0.0349,0.0302,0.0325,
大田 (Ota),2020-07-16,23:01～24:00,0.0342,0.0301,0.0323,
大田 (Ota),2020-07-16,22:01～23:00,0.0344,0.0305,0.0326,
大田 (Ota),2020-07-16,21:01～22:00,0.0340,0.0291,0.0322,
大田 (Ota),2020-07-16,20:01～21:00,0.0344,0.0302,0.0323,
大田 (Ota),2020-07-16,19:01～20:00,0.0338,0.0303,0.0322,
大田 (Ota),2020-07-16,18:01～19:00,0.0349,0.0298,0.0323,
大田 (Ota),2020-07-16,17:01～18:00,0.0344,0.0302,0.0322,
大田 (Ota),2020-07-16,16:01～17:00,0.0345,0.0306,0.0322,
大田 (Ota),2020-07-16,15:01～16:00,0.0344,0.0299,0.0323,
大田 (Ota),2020-07-16,14:01～15:00,0.0341,0.0305,0.0323,
大田 (Ota),2020-07-16,13:01～14:00,0.0340,0.0299,0.0321,
大田 (Ota),2020-07-16,12:01～13:00,0.0349,0.0302,0.0322,
大田 (Ota),2020-07-16,11:01～12:00,0.0338,0.0302,0.0322,
大田 (Ota),2020-07-16,10:01～11:00,0.0350,0.0298,0.0322,
大田 (Ota),2020-07-16,09:01～10:00,0.0343,0.0303,0.0322,
大田 (Ota),2020-07-16,08:01～09:00,0.0353,0.0296,0.0323,
大田 (Ota),2020-07-16,07:01～08:00,0.0339,0.0302,0.0322,
大田 (Ota),2020-07-16,06:01～07:00,0.0344,0.0305,0.0324,
大田 (Ota),2020-07-16,05:01～06:00,0.0345,0.0296,0.0320,
大田 (Ota),2020-07-16,04:01～05:00,0.0341,0.0303,0.0322,
大田 (Ota),2020-07-16,03:01～04:00,0.0349,0.0311,0.0328,
大田 (Ota),2020-07-16,02:01～03:00,0.0347,0.0305,0.0326,
大田 (Ota),2020-07-16,01:01～02:00,0.0359,0.0309,0.0335,
大田 (Ota),2020-07-16,00:01～01:00,0.0386,0.0327,0.0354,
大田 (Ota),2020-07-15,23:01～24:00,0.0429,0.0348,0.0391,
大田 (Ota),2020-07-15,22:01～23:00,0.0436,0.0362,0.0389,
大田 (Ota),2020-07-15,21:01～22:00,0.0420,0.0363,0.0391,
大田 (Ota),2020-07-15,20:01～21:00,0.0418,0.0358,0.0382,
大田 (Ota),2020-07-15,19:01～20:00,0.0418,0.0347,0.0373,
大田 (Ota),2020-07-15,18:01～19:00,0.0372,0.0318,0.0338,
大田 (Ota),2020-07-15,17:01～18:00,0.0372,0.0321,0.0347,
大田 (Ota),2020-07-15,16:01～17:00,0.0371,0.0344,0.0360,
大田 (Ota),2020-07-15,15:01～16:00,0.0387,0.0336,0.0355,
大田 (Ota),2020-07-15,14:01～15:00,0.0375,0.0323,0.0350,
大田 (Ota),2020-07-15,13:01～14:00,0.0441,0.0343,0.0383,
大田 (Ota),2020-07-15,12:01～13:00,0.0450,0.0362,0.0408,
大田 (Ota),2020-07-15,11:01～12:00,0.0394,0.0325,0.0354,
大田 (Ota),2020-07-15,10:01～11:00,0.0376,0.0327,0.0351,
大田 (Ota),2020-07-15,09:01～10:00,0.0400,0.0320,0.0355,
大田 (Ota),2020-07-15,08:01～09:00,0.0347,0.0304,0.0328,
大田 (Ota),2020-07-15,07:01～08:00,0.0350,0.0293,0.0329,
大田 (Ota),2020-07-15,06:01～07:00,0.0343,0.0308,0.0324,
大田 (Ota),2020-07-15,05:01～06:00,0.0339,0.0310,0.0326,
大田 (Ota),2020-07-15,04:01～05:00,0.0343,0.0296,0.0323,
大田 (Ota),2020-07-15,03:01～04:00,0.0353,0.0309,0.0326,
大田 (Ota),2020-07-15,02:01～03:00,0.0348,0.0299,0.0325,
大田 (Ota),2020-07-15,01:01～02:00,0.0353,0.0294,0.0325,
大田 (Ota),2020-07-15,00:01～01:00,0.0347,0.0307,0.0327,
大田 (Ota),2020-07-14,23:01～24:00,0.0348,0.0306,0.0328,
大田 (Ota),2020-07-14,22:01～23:00,0.0346,0.0308,0.0328,
大田 (Ota),2020-07-14,21:01～22:00,0.0346,0.0299,0.0327,
大田 (Ota),2020-07-14,20:01～21:00,0.0350,0.0312,0.0331,
大田 (Ota),2020-07-14,19:01～20:00,0.0345,0.0311,0.0326,
大田 (Ota),2020-07-14,18:01～19:00,0.0348,0.0305,0.0326,
大田 (Ota),2020-07-14,17:01～18:00,0.0348,0.0302,0.0325,
大田 (Ota),2020-07-14,16:01～17:00,0.0341,0.0308,0.0327,
大田 (Ota),2020-07-14,15:01～16:00,0.0353,0.0307,0.0329,
大田 (Ota),2020-07-14,14:01～15:00,0.0353,0.0305,0.0332,
大田 (Ota),2020-07-14,13:01～14:00,0.0380,0.0328,0.0351,
大田 (Ota),2020-07-14,12:01～13:00,0.0406,0.0337,0.0358,
大田 (Ota),2020-07-14,11:01～12:00,0.0387,0.0327,0.0350,
大田 (Ota),2020-07-14,10:01～11:00,0.0391,0.0345,0.0366,
大田 (Ota),2020-07-14,09:01～10:00,0.0435,0.0346,0.0385,
大田 (Ota),2020-07-14,08:01～09:00,0.0456,0.0357,0.0397,
大田 (Ota),2020-07-14,07:01～08:00,0.0401,0.0333,0.0356,
大田 (Ota),2020-07-14,06:01～07:00,0.0439,0.0333,0.0376,
大田 (Ota),2020-07-14,05:01～06:00,0.0459,0.0391,0.0421,
大田 (Ota),2020-07-14,04:01～05:00,0.0440,0.0375,0.0406,
大田 (Ota),2020-07-14,03:01～04:00,0.0406,0.0343,0.0372,
大田 (Ota),2020-07-14,02:01～03:00,0.0410,0.0356,0.0374,
大田 (Ota),2020-07-14,01:01～02:00,0.0427,0.0360,0.0388,
大田 (Ota),2020-07-14,00:01～01:00,0.0427,0.0346,0.0374,
大田 (Ota),2020-07-13,23:01～24:00,0.0416,0.0333,0.0377,
大田 (Ota),2020-07-13,22:01～23:00,0.0425,0.0359,0.0385,
大田 (Ota),2020-07-13,21:01～22:00,0.0390,0.0331,0.0353,
大田 (Ota),2020-07-13,20:01～21:00,0.0370,0.0328,0.0347,
大田 (Ota),2020-07-13,19:01～20:00,0.0398,0.0350,0.0370,
大田 (Ota),2020-07-13,18:01～19:00,0.0394,0.0345,0.0369,
大田 (Ota),2020-07-13,17:01～18:00,0.0405,0.0348,0.0369,
大田 (Ota),2020-07-13,16:01～17:00,0.0374,0.0338,0.0359,
大田 (Ota),2020-07-13,15:01～16:00,0.0365,0.0314,0.0340,
大田 (Ota),2020-07-13,14:01～15:00,0.0362,0.0311,0.0333,
大田 (Ota),2020-07-13,13:01～14:00,0.0345,0.0305,0.0325,
大田 (Ota),2020-07-13,12:01～13:00,0.0340,0.0300,0.0323,
大田 (Ota),2020-07-13,11:01～12:00,0.0347,0.0309,0.0323,
大田 (Ota),2020-07-13,10:01～11:00,0.0339,0.0300,0.0321,
大田 (Ota),2020-07-13,09:01～10:00,0.0343,0.0299,0.0322,
大田 (Ota),2020-07-13,08:01～09:00,0.0343,0.0304,0.0323,
大田 (Ota),2020-07-13,07:01～08:00,0.0340,0.0295,0.0320,
大田 (Ota),2020-07-13,06:01～07:00,0.0346,0.0308,0.0324,
大田 (Ota),2020-07-13,05:01～06:00,0.0344,0.0304,0.0325,
大田 (Ota),2020-07-13,04:01～05:00,0.0348,0.0308,0.0328,
大田 (Ota),2020-07-13,03:01～04:00,0.0372,0.0307,0.0344,
大田 (Ota),2020-07-13,02:01～03:00,0.0445,0.0342,0.0384,
大田 (Ota),2020-07-13,01:01～02:00,0.0507,0.0397,0.0446,
大田 (Ota),2020-07-13,00:01～01:00,0.0439,0.0354,0.0393,
